Weather observations for the past three days for
Du Bois - Jefferson County Airport
Imperial (Metric)
Date Time (edt) Wind (mph) Vis. (mi.) Weather Sky Cond. Temperature (ºF) Relative Humidity Wind Chill (°F) Heat Index (°F) Pressure Precipitation (in)
Air Dwpt 6 hour altimeter (in) sea level (mb) 1 hr 3 hr 6 hr
Max. Min.
19 08:53 NE 5 10.00 Fair CLR 64.9 54 68% 30.22 1022.4
19 07:53 E 3 10.00 Fair CLR 61 55 61 51.1 81% 30.2 1021.8
19 06:53 Calm 6.00 Fog/Mist CLR 54 51.1 90% 30.18 1021.3
19 05:53 Calm 1.75 Fog/Mist CLR 51.1 48 89% 30.17 1021.0
19 04:53 Calm 10.00 Fair CLR 55 51.1 87% 30.15 1020.3
19 03:53 Calm 10.00 Fair CLR 54 51.1 90% 30.15 1020.1
19 02:53 Calm 10.00 Fair CLR 54 51.1 90% 30.15 1020.2
19 01:53 Calm 10.00 Fair CLR 57 52 70 55 83% 30.15 1020.1
19 00:53 Calm 10.00 Fair CLR 57 52 83% 30.15 1020.2
18 23:53 N 3 10.00 Fair CLR 61 52 72% 30.14 1019.7
18 22:53 N 5 10.00 Fair CLR 63 52 68% 30.13 1019.3
18 21:53 N 5 10.00 Fair CLR 64 51.1 63% 30.12 1018.8
18 20:53 N 6 10.00 Fair CLR 66.9 51.1 57% 30.1 1018.2
18 19:53 NW 8 10.00 Fair CLR 70 52 75.9 70 53% 30.08 1017.6
18 18:53 NW 10 10.00 Mostly Cloudy BKN048 73.9 53.1 48% 30.06 1016.8
18 17:53 W 12 10.00 Fair CLR 73.9 53.1 48% 30.05 1016.6
18 16:53 NW 8 10.00 Partly Cloudy FEW050 SCT070 73.9 54 50% 30.05 1016.4
18 15:53 NW 9 G 17 10.00 Fair CLR 75.9 54 47% 78 30.06 1016.6
18 14:53 NW 8 10.00 Partly Cloudy SCT065 SCT075 73.9 55.9 54% 30.06 1016.8
18 13:53 NW 8 G 18 10.00 Fair CLR 75 57 75 64.9 54% 78 30.06 1016.6
18 12:53 NW 10 10.00 Overcast SCT037 BKN046 OVC055 73 55.9 55% 30.06 1016.9
18 11:53 N 9 10.00 Mostly Cloudy FEW029 BKN039 73.9 57 56% 30.07 1017.0
18 10:53 Vrbl 7 10.00 A Few Clouds FEW025 71.1 57 61% 30.06 1016.6
18 09:53 N 8 10.00 Fair CLR 70 57 64% 30.05 1016.4
18 08:53 N 7 10.00 Partly Cloudy SCT011 68 60.1 76% 30.04 1016.2
18 07:53 N 8 9.00 Overcast OVC008 64.9 60.1 66 64 84% 30.03 1015.9
18 06:53 N 6 8.00 Overcast OVC009 64.9 60.1 84% 30.01 1015.0
18 05:53 N 6 10.00 Overcast OVC010 64 60.1 87% 29.99 1014.4
18 04:53 NW 5 10.00 A Few Clouds FEW010 64.9 61 87% 29.98 1014.1
18 03:53 W 6 6.00 Fog/Mist OVC006 66 63 90% 29.97 1013.8
18 02:53 W 6 4.00 Fog/Mist OVC004 66 64 93% 29.97 1013.8
18 01:53 SW 3 3.00 Fog/Mist OVC003 66 64 70 66 93% 29.96 1013.4
18 00:53 W 5 4.00 Fog/Mist OVC004 68 64.9 90% 29.96 0.0
17 23:53 W 7 3.00 Fog/Mist OVC002 68 64.9 90% 29.96 1013.1
17 22:53 W 5 4.00 Fog/Mist OVC002 69.1 66 90% 29.95 1012.8
17 21:53 W 3 7.00 Overcast OVC007 69.1 66 90% 29.96 1013.0
17 20:53 W 5 7.00 Overcast OVC006 69.1 66 90% 29.93 1012.4
17 19:53 SW 5 10.00 Overcast OVC005 70 66 72 68 87% 29.92 1012.0 0.75
17 18:53 Calm 10.00 Partly Cloudy FEW036 SCT110 69.1 66 90% 29.91 1011.7 0.02
17 17:53 S 3 5.00 Light Rain Fog/Mist FEW014 OVC110 68 64.9 90% 29.91 1011.6 0.05
17 16:53 SW 5 5.00 Light Rain Fog/Mist OVC100 69.1 66 90% 29.9 1011.3 0.03 0.68
17 15:53 SW 3 10.00 Overcast FEW065 OVC085 69.1 64.9 87% 29.91 1011.7 0.02
17 14:53 NW 13 2.50 Thunderstorm in Vicinity Rain Fog/Mist FEW006 BKN048 OVC070 69.1 64.9 87% 29.92 1011.8 0.63
17 13:53 NW 8 0.25 Thunderstorm in Vicinity Heavy Rain BKN018 OVC023 71.1 64.9 75 70 81% 29.91 1011.4 1.11 1.11
17 11:53 Vrbl 5 10.00 Light Rain BKN012 BKN018 OVC033 75 69.1 82% 75 29.92 1011.5
17 10:53 SW 7 10.00 Overcast BKN012 OVC019 75 68 79% 76 29.93 1011.9
17 09:53 SW 6 10.00 Overcast OVC008 73.9 69.1 85% 29.92 1011.8
17 08:53 SW 6 10.00 Overcast OVC008 73 68 84% 29.92 1011.6
17 07:53 SW 8 10.00 Overcast BKN010 OVC044 73 68 73 69.1 84% 29.92 1011.7
17 06:53 SW 6 10.00 Mostly Cloudy FEW013 BKN018 BKN049 72 68 87% 29.91 1011.1
17 05:53 SW 5 10.00 Overcast FEW010 BKN021 OVC100 72 66.9 84% 29.89 1010.7
17 04:53 SW 6 10.00 Overcast BKN065 OVC075 72 66.9 84% 29.88 1010.2
17 03:53 SW 6 10.00 Mostly Cloudy BKN080 70 66 87% 29.88 1010.2
17 02:53 SW 3 10.00 Fair CLR 71.1 64.9 81% 29.89 1010.5
17 01:53 SW 3 10.00 Partly Cloudy SCT070 72 64 82 70 76% 29.89 1010.6
17 00:53 Calm 10.00 Mostly Cloudy BKN050 73.9 64 71% 29.9 1010.6
16 23:53 SW 5 10.00 A Few Clouds FEW050 73.9 64 71% 29.9 1010.5
16 22:53 S 3 10.00 Fair CLR 71.1 64.9 81% 29.89 1010.5
16 21:53 Calm 10.00 Fair CLR 73 64.9 76% 29.89 1010.5
16 20:53 Calm 10.00 Fair CLR 78.1 64 62% 80 29.9 1010.7
16 19:53 NW 3 10.00 Fair CLR 82 64 84.9 81 55% 84 29.89 1010.4
16 18:53 N 7 10.00 Fair CLR 82.9 64 53% 84 29.89 1010.4
16 17:53 W 7 10.00 Fair CLR 82.9 64 53% 84 29.89 1010.6
16 16:53 W 12 G 21 10.00 Fair CLR 84 64 51% 85 29.89 1010.5
16 15:53 W 16 G 25 10.00 Fair CLR 84 64 51% 85 29.89 1010.4
16 14:53 W 15 G 26 10.00 A Few Clouds FEW043 84 63 49% 85 29.89 1010.4
16 13:53 W 21 G 32 10.00 Partly Cloudy and Breezy SCT043 SCT050 84 64 87.1 75 51% 85 29.88 1010.2
16 12:53 W 21 G 33 10.00 Mostly Cloudy and Breezy SCT047 BKN060 84.9 64 50% 86 29.86 1009.4
16 11:53 SW 21 G 35 10.00 Partly Cloudy and Breezy SCT042 SCT050 86 64.9 49% 88 29.84 1008.9
16 10:53 SW 20 G 33 10.00 Partly Cloudy SCT042 84 64.9 53% 86 29.84 1008.8
16 09:53 SW 14 G 26 10.00 Fair CLR 81 68 65% 84 29.84 1008.8
Date Time (edt) Wind (mph) Vis. (mi.) Weather Sky Cond. Air Dwpt Max. Min. Relative Humidity Wind Chill (°F) Heat Index (°F) altimeter (in) sea level (mb) 1 hr 3 hr 6 hr
6 hour
Temperature (ºF) Pressure Precipitation (in)